STARLINK-32082, 60346

Orbit data source: Space-Track

STARLINK-32082, 60346 is a payload satellite owned by SpaceX/Seattle (US) in LEO that was launched on Fri, 02 Aug 2024 UTC via an FALCON 9 launch vehicle from the Air Force Eastern Test Range (AFETR). Payload-class satellites include a variety of spacecraft equipped with specific instruments for various scientific and technological missions. These include communications satellites like Starlink; space stations such as the ISS; scientific satellites like the Hubble; Earth observation satellites from companies like Planet Labs, Umbra, and HawkEye 360; GPS; miniature CubeSats for education and research; and military/defense satellites.

Loading next visibility...
Identifier
60346, 2024-136T
Orbit
LEO
Country
Flag of USUS
Related business
Manufacturer
SpaceX/Seattle
Mission
Operational Commercial Communications
Bus & Motor
STARLINK V2M, Unknown motor
Mass
730 kg wet, ~700 kg dry
Launch date (UTC)
2024-08-02 (2 years ago)
Launch vehicle
FALCON 9
Launch site
Air Force Eastern Test Range (AFETR)
Object type
Payload
Rocket body
Debris
Shape & HBR
Box + 2 Pan, 17.7 m
Radar Cross Section
33.884 m², Large (>1 m²)

Expand to show TLE details & history
Last TLE update: 1 day ago

TLE from 1 day ago
0 STARLINK-32082
1 60346U 24136T   26263.69761656  .00001364  00000-0  51512-4 0  9992
2 60346  53.1612 248.9867 0001116  75.8170 284.2957 15.34395712119536
Epoch: 2026-09-20T16:44Z
TLE epoch observation values (Epoch: 2026-09-20T16:44:34.070Z)
Latitude
Longitude
-1.74333°
Altitude
463.429 km
Speed
7.636 km/s
True Right ascension
16h 35m 56s
True Declination
0° 00' 00"
Sunlit
Object was in daylight at epoch
Visualization orbit readout
Latitude
Unknown
Longitude
Unknown
Altitude
Unknown
Speed
Unknown
Apparent Right ascension
Unknown
Apparent Declination
Unknown
Sunlit
N/A
Visualization observer readout
Local Sidereal Time
18:19:26
Azimuth
Unknown
Elevation
Unknown
Doppler factor
Unknown
Orbital elements
Apogee altitude
463.736 km
Perigee altitude
462.209 km
Semi-major axis
6,841.11 km
Eccentricity
0.00011
Inclination
53.1612°
RAAN
248.9867°
Arg. of periapsis
75.817°
True anomaly
284.28331°
Mean anomaly
284.2957°
Eccentric anomaly
284.2895°
Mean motion
3.83578 °/min
Orbital period
93.85 mins
BSTAR
0.000051512
Loading maneuver chart data...
Computing Atmospheric mass density...
Loading historical data...
Loading historical data...
Loading historical data...
Loading historical data...
Loading historical data...
Loading historical data...
Loading historical data...

Documentation

Showing up to 5 results
|